Temperature
18 18 18 18 18 18 18 18 18 18 18 18 18 18 18 17 17 17 17 17 17 17 17 17 17 17 17 17 17 17 16 16 16 16 16 16 16 16 16 16 16 15 15
18 18 18 18 18 18 18 18 18 18 18 18 18 18 18 17 17 17 17 17 17 17 17 17 17 17 17 17 17 16 16 16 16 16 16 16 16 16 16 16 16 15 15
18 18 18 18 18 18 18 18 18 18 18 18 18 17 17 17 17 17 17 17 17 17 17 17 17 17 17 17 17 17 16 16 16 16 16 16 16 16 16 15 15 15 15
18 18 18 18 18 18 18 18 18 18 18 18 18 17 17 17 17 17 17 17 17 17 17 17 17 17 17 17 17 16 16 16 16 16 16 16 16 16 15 15 15 15 15
18 18 18 18 18 18 18 18 18 18 18 18 17 17 17 17 17 17 17 17 17 17 17 17 17 17 17 17 16 16 16 16 16 16 16 16 16 16 15 15 15 15 15
18 18 18 18 18 18 18 18 18 18 18 17 17 17 17 17 17 17 17 17 17 17 17 17 17 17 17 16 16 16 16 16 16 16 16 16 15 15 15 15 15 15 15
18 18 18 18 18 18 18 18 18 18 17 17 17 17 17 17 17 17 17 17 17 17 17 17 17 17 17 17 16 16 16 16 16 16 16 16 15 15 15 15 15 15 15
18 18 18 18 18 18 18 18 18 17 17 17 17 17 17 17 17 17 17 17 17 16 16 16 16 16 16 16 16 16 16 16 16 16 16 15 15 15 15 15 15 15 15
18 18 18 18 18 18 18 17 17 18 18 17 17 17 17 17 16 16 16 16 16 16 16 16 16 16 16 16 16 16 16 16 16 15 15 15 15 15 15 15 15 15 14
18 18 18 18 18 18 18 17 17 17 17 17 17 17 17 17 16 16 16 16 16 16 16 16 16 16 16 16 16 16 16 15 15 15 15 15 15 15 15 15 14 14 14
18 18 18 18 18 18 18 17 17 17 17 17 17 17 17 17 17 16 16 16 16 16 16 16 16 16 16 16 15 15 15 15 15 15 15 15 15 15 15 14 14 14 14
18 18 18 18 18 18 18 17 17 17 17 17 17 17 17 17 16 16 16 16 15 15 15 15 15 15 15 15 15 15 15 15 15 15 15 15 14 14 14 14 14 14 14
18 18 18 18 18 17 17 17 17 17 17 17 17 17 17 17 16 16 16 15 15 15 15 15 15 15 15 15 15 15 15 15 14 14 14 14 14 14 14 14 14 14 14
18 18 18 18 18 17 17 17 17 17 17 17 17 16 16 16 16 16 16 16 15 15 14 14 14 14 14 14 14 14 14 14 14 14 14 14 14 14 14 13 13 13 13
18 18 18 18 18 17 17 17 17 17 17 17 17 17 17 16 16 16 16 16 16 15 14 14 14 14 14 14 14 14 14 14 14 14 14 13 13 13 13 13 13 13 13
18 18 18 18 17 17 17 17 17 17 17 17 17 16 16 16 16 16 16 15 15 15 15 14 14 14 14 14 14 14 14 13 13 13 13 13 13 13 13 13 12 12 12
18 18 18 17 17 17 17 17 17 17 17 17 16 16 16 16 16 16 15 15 15 15 15 14 14 14 13 13 13 13 13 13 13 13 13 13 13 12 12 12 12 12 12
18 18 18 17 17 17 17 17 16 16 16 16 16 16 16 16 16 15 15 15 15 15 14 14 14 13 13 13 13 13 13 13 12 12 12 12 12 12 12 12 12 11 11
18 18 18 17 17 17 17 16 16 16 16 16 16 16 16 16 15 15 15 15 15 15 14 14 14 13 13 13 13 12 12 12 12 12 12 12 12 12 11 11 11 11 11
19 18 18 17 17 17 17 16 16 16 16 16 16 15 15 15 15 15 15 15 15 14 14 14 13 13 13 12 12 12 12 12 12 12 12 11 11 11 11 11 11 11 11
18 18 18 17 17 17 17 16 16 16 16 15 15 15 15 15 15 14 14 14 14 14 14 13 13 13 12 12 12 12 12 12 12 11 11 11 11 11 11 11 11 11 10
18 18 18 17 17 17 16 16 16 16 15 15 15 15 15 14 14 14 14 14 14 13 13 13 13 12 12 12 12 12 11 11 11 11 11 11 11 11 11 10 10 10 10
18 18 18 17 17 17 16 16 16 15 15 15 15 14 14 14 14 14 13 13 13 13 13 13 13 12 12 12 12 12 11 11 11 11 11 11 11 11 10 10 10 10 10
18 18 17 17 17 16 16 16 16 15 15 15 14 14 14 14 14 13 13 13 13 13 13 13 12 12 12 12 12 12 11 11 11 11 11 11 11 10 10 10 10 10 10
18 17 17 17 16 16 16 15 15 15 15 14 14 14 14 14 13 13 13 13 13 13 13 12 12 12 12 12 11 11 11 11 11 11 11 10 10 10 10 10 10 10 9
17 17 17 16 16 16 15 15 15 15 14 14 14 14 13 13 13 13 13 13 13 13 12 12 12 12 12 11 11 11 11 11 11 10 10 10 10 10 10 10 10 10 9
Wind_Speed
3 3 3 3 4 4 4 3 3 2 2 3 3 4 5 7 8 8 9 12 13 13 13 12 12 11 11 10 10 9 9 10 10 10 10 10 10 10 9 9 9 9 9
5 3 2 2 3 4 4 4 3 3 3 2 1 2 5 7 8 8 9 11 12 13 13 13 12 12 11 11 11 10 10 10 10 11 11 11 11 10 10 9 10 10 10
6 4 2 2 2 3 3 3 2 2 2 2 1 2 4 6 7 8 9 9 10 12 12 12 12 12 12 11 11 11 11 11 11 11 12 12 12 11 11 11 11 10 10
6 5 2 2 2 3 3 2 2 2 1 1 1 1 2 3 5 7 8 8 9 9 11 12 12 11 11 11 11 11 11 11 11 12 12 12 12 12 11 11 11 11 11
6 5 3 2 3 3 2 2 2 2 2 1 0 0 1 2 3 5 5 7 8 9 9 10 11 11 11 10 10 10 11 11 11 12 13 13 13 13 13 12 12 12 12
5 5 3 2 3 2 1 1 2 1 2 1 1 2 1 0 1 2 3 4 6 8 8 8 7 8 9 10 10 10 11 12 13 13 13 14 14 14 14 13 13 12 12
5 4 3 2 2 2 2 2 2 2 1 1 2 2 3 2 1 1 1 1 1 4 5 6 6 5 5 7 7 7 9 10 11 12 12 13 14 13 13 13 13 12 12
5 4 3 3 2 2 2 2 2 2 1 2 3 2 1 3 3 2 1 2 2 2 3 4 4 4 4 4 5 6 7 8 9 9 10 10 11 12 12 13 13 12 12
4 4 4 3 2 3 2 2 2 3 2 1 2 3 2 2 1 2 1 1 1 1 2 3 4 3 3 3 3 4 5 6 6 6 7 8 8 9 10 11 10 10 9
3 4 4 4 3 2 3 3 2 2 3 2 1 1 2 4 2 0 2 1 1 1 1 2 3 4 4 3 3 3 2 2 3 3 3 5 6 7 8 9 9 8 7
2 3 4 3 3 3 3 3 2 2 3 3 2 1 1 1 2 2 1 1 1 1 1 1 2 3 3 3 3 3 3 3 2 1 1 2 3 5 6 7 7 7 6
1 2 3 2 2 2 2 2 2 3 2 2 2 2 2 2 2 2 2 2 1 1 1 1 2 2 3 3 3 3 4 4 3 2 2 2 2 2 4 4 4 4 4
1 1 2 2 1 2 2 2 2 2 2 2 2 2 2 2 2 2 3 2 1 0 1 1 1 2 3 3 3 4 4 5 5 4 3 3 3 4 4 4 4 4 4
2 2 2 2 1 1 2 2 2 1 1 1 1 1 1 2 2 3 4 4 2 0 0 1 1 2 3 3 3 4 4 5 5 5 4 4 5 6 6 6 6 6 6
2 2 2 2 1 2 2 2 1 1 1 1 1 1 1 1 2 2 3 4 4 2 1 2 1 1 3 4 3 5 5 5 5 5 5 5 6 6 6 7 7 6 6
2 3 2 2 2 2 2 2 1 1 1 1 0 1 0 1 1 1 2 2 2 3 2 1 1 2 3 4 4 4 4 5 5 5 5 6 6 7 7 7 7 7 6
3 3 3 3 3 2 2 2 2 1 1 1 1 1 1 1 1 1 2 2 2 3 3 1 0 1 2 2 3 3 4 4 4 4 5 6 7 7 7 7 7 7 6
3 3 3 3 3 2 2 3 2 2 2 1 1 1 0 1 1 1 2 3 2 3 4 3 1 1 1 3 3 2 2 3 3 4 5 6 6 7 7 7 7 6 6
3 3 3 3 3 3 3 2 2 2 2 2 1 1 1 1 1 1 2 3 2 3 3 4 3 1 1 2 1 1 2 1 2 3 4 5 6 6 7 7 7 6 6
4 4 3 3 3 2 2 2 2 2 2 1 1 1 1 2 2 2 2 2 3 3 4 4 3 2 1 1 2 1 1 1 1 2 3 4 5 5 6 6 6 6 6
5 4 4 2 2 2 2 2 2 2 2 1 1 1 1 2 2 3 3 3 4 3 4 4 3 2 2 2 2 2 2 1 1 1 1 2 3 3 4 5 6 7 7
4 4 4 3 2 1 2 3 3 2 2 2 2 1 1 1 1 2 5 5 6 6 5 4 3 3 3 3 2 3 2 2 2 2 2 2 3 2 5 7 8 9 9
5 4 4 4 3 2 3 4 4 3 2 2 2 1 1 0 1 1 3 3 3 5 7 6 5 4 4 5 4 4 4 3 3 3 3 2 2 3 6 7 9 11 11
5 5 5 4 3 2 4 4 3 3 2 2 2 3 2 1 1 2 3 2 1 1 3 4 5 5 5 5 6 5 5 3 1 1 4 3 2 3 4 7 9 11 12
5 5 5 5 4 2 3 4 4 2 2 2 1 2 3 2 2 4 4 3 1 1 1 3 5 6 7 8 7 3 2 2 1 2 2 3 2 2 2 3 8 10 12
6 5 4 4 4 3 3 4 4 3 2 1 1 1 2 3 3 5 4 3 2 2 1 0 0 1 2 4 7 6 6 4 2 2 3 3 2 2 1 2 3 7 9
Wind_Direction
160 162 171 176 184 188 184 181 194 200 206 213 204 176 163 159 163 165 170 171 172 176 179 180 179 178 182 186 187 188 190 192 194 195 194 195 197 198 200 204 205 205 204
160 158 165 172 184 187 190 187 195 190 225 163 170 167 161 157 159 165 172 178 183 188 188 188 188 190 193 194 196 197 200 203 203 203 204 205 206 206 208 210 213 212 212
158 156 159 169 185 182 174 161 167 159 150 155 177 157 145 155 159 169 175 181 188 192 194 195 197 199 201 202 204 207 208 209 210 211 210 212 212 214 217 219 220 221 219
158 150 149 171 167 144 142 146 149 137 138 134 139 147 146 157 167 173 180 185 188 192 197 200 201 204 209 212 212 214 215 215 216 216 215 216 217 218 219 221 222 224 222
156 148 153 173 150 132 139 162 141 143 142 155 194 78 162 176 179 178 178 189 194 197 200 203 204 208 215 220 220 221 220 219 221 222 221 221 222 223 223 224 225 227 227
161 153 157 165 145 134 136 142 146 136 153 163 101 44 13 274 155 176 192 191 199 204 205 203 204 214 221 224 224 228 230 229 228 227 227 227 225 225 223 223 224 226 228
164 157 149 149 144 145 161 154 142 126 123 120 90 35 11 17 356 213 168 147 173 198 195 193 193 201 214 219 223 228 230 232 231 229 229 229 229 227 223 222 222 226 229
163 158 147 154 156 144 135 145 138 139 166 137 131 109 14 1 7 6 76 132 143 134 144 165 172 183 196 202 210 223 231 232 233 230 226 226 225 224 222 223 223 226 228
167 162 164 158 164 159 167 182 167 159 178 217 156 144 153 213 309 351 14 92 120 126 147 154 156 170 180 192 203 214 223 230 233 234 229 225 222 219 214 216 220 222 225
173 169 165 165 176 174 175 192 167 169 163 190 223 171 171 165 166 254 339 7 38 107 133 136 144 148 156 165 172 167 180 204 224 222 217 221 220 216 211 210 213 213 216
181 170 164 162 172 179 183 181 165 164 170 179 188 177 149 151 152 162 220 308 9 21 98 123 109 115 142 160 156 148 145 160 169 207 193 191 204 205 199 200 206 210 212
175 167 154 156 168 174 178 183 177 168 174 173 182 176 168 170 183 166 183 205 210 345 49 75 97 100 101 120 144 140 145 148 145 161 148 133 129 139 167 176 184 192 194
190 199 174 174 181 183 181 175 165 175 174 172 191 205 197 200 179 161 157 173 168 185 65 43 60 100 101 102 118 129 126 132 135 136 130 118 105 105 118 135 129 122 120
193 189 164 172 178 171 159 151 156 185 161 176 202 195 195 209 180 162 164 156 148 138 116 177 35 107 116 118 130 135 120 129 133 131 126 120 115 112 110 109 107 103 100
178 167 157 160 168 157 147 145 146 183 170 188 208 194 192 203 178 175 166 164 162 179 215 193 179 153 133 123 128 129 125 134 137 134 133 133 131 123 118 113 110 107 105
171 157 155 160 163 153 140 127 120 138 136 210 186 148 187 205 182 169 170 168 162 165 181 194 195 183 152 129 126 123 127 129 131 135 138 140 137 131 125 122 117 116 114
153 159 161 152 146 141 133 130 136 126 118 87 96 129 164 166 163 167 156 154 152 143 154 182 114 141 126 131 125 120 124 123 124 131 142 143 140 136 132 129 126 124 120
153 156 145 136 138 134 131 137 150 135 135 133 122 106 225 137 141 165 160 163 166 157 152 164 159 154 156 163 158 153 144 143 139 143 148 149 150 149 144 139 134 130 122
148 141 139 140 140 133 135 146 151 149 148 153 140 132 157 128 143 159 153 157 161 146 138 154 167 167 140 157 141 160 149 140 157 163 162 166 164 161 159 153 148 144 140
149 139 136 140 143 143 148 158 156 152 150 149 157 143 134 149 171 164 144 142 137 130 133 147 153 157 160 164 142 152 170 229 204 180 170 178 182 179 178 172 169 168 165
156 149 141 136 137 150 166 167 171 165 161 163 146 134 138 147 170 172 159 153 144 143 145 150 161 161 168 165 189 192 192 195 249 207 171 205 196 200 205 199 193 190 184
157 151 154 154 155 168 154 147 146 141 151 154 151 148 112 74 127 171 161 153 155 159 165 168 183 189 202 198 185 179 170 155 238 226 173 225 199 224 231 224 218 210 204
167 165 166 160 165 178 156 149 147 141 146 154 153 155 148 56 78 125 146 145 164 171 169 172 183 202 202 199 181 186 192 192 215 206 163 220 213 228 237 232 226 221 218
175 181 182 178 174 188 167 158 152 140 144 150 157 163 155 162 138 136 133 119 138 213 201 189 196 210 208 198 189 192 198 197 220 200 161 195 218 224 232 230 230 224 223
184 186 182 176 177 192 178 169 150 135 136 139 154 157 160 165 179 149 131 128 103 327 279 196 200 201 199 192 179 153 150 152 209 231 185 178 202 219 241 241 236 228 225
183 179 180 182 180 188 191 173 155 145 154 171 177 183 180 172 167 156 151 152 173 240 249 116 191 203 194 199 190 181 178 177 186 228 207 171 178 154 232 266 236 230 229
Height
1552 1552 1553 1554 1555 1555 1556 1557 1557 1558 1558 1559 1560 1560 1560 1561 1561 1561 1561 1562 1562 1563 1563 1564 1565 1565 1566 1567 1567 1567 1568 1568 1569 1570 1570 1571 1572 1572 1573 1574 1574 1575 1575
1552 1553 1553 1554 1555 1556 1556 1557 1557 1558 1559 1559 1560 1560 1560 1561 1561 1561 1562 1562 1562 1563 1563 1564 1564 1565 1566 1566 1566 1567 1567 1567 1568 1569 1569 1570 1571 1571 1572 1572 1573 1573 1574
1552 1553 1553 1554 1555 1556 1556 1556 1557 1558 1558 1559 1559 1560 1560 1561 1561 1561 1561 1562 1562 1563 1563 1563 1564 1564 1565 1565 1565 1566 1566 1566 1567 1567 1568 1568 1569 1569 1570 1570 1571 1572 1572
1552 1552 1553 1554 1554 1555 1556 1556 1557 1557 1558 1558 1559 1559 1560 1560 1561 1561 1561 1562 1562 1562 1562 1562 1563 1563 1564 1564 1564 1565 1565 1565 1565 1566 1566 1566 1567 1567 1568 1568 1569 1569 1570
1552 1552 1553 1553 1554 1554 1555 1556 1556 1557 1557 1558 1558 1559 1559 1559 1560 1560 1560 1561 1561 1561 1561 1562 1562 1562 1562 1563 1563 1563 1563 1563 1563 1563 1563 1563 1564 1564 1565 1565 1566 1567 1567
1551 1551 1552 1552 1553 1553 1554 1554 1555 1556 1556 1557 1557 1557 1558 1558 1558 1558 1559 1559 1559 1560 1560 1560 1560 1561 1561 1561 1561 1561 1561 1561 1560 1560 1560 1560 1561 1561 1562 1563 1563 1564 1564
1550 1551 1551 1551 1552 1553 1553 1553 1554 1554 1555 1556 1556 1556 1557 1557 1557 1557 1557 1557 1557 1558 1558 1559 1559 1559 1559 1559 1559 1559 1558 1558 1558 1557 1557 1557 1557 1558 1559 1560 1560 1561 1562
1549 1550 1550 1551 1551 1552 1552 1552 1553 1553 1554 1554 1555 1555 1556 1557 1556 1556 1556 1556 1556 1556 1556 1557 1557 1557 1557 1557 1556 1556 1556 1555 1555 1555 1554 1554 1554 1555 1556 1557 1557 1558 1559
1548 1549 1549 1550 1550 1551 1551 1551 1552 1552 1552 1553 1554 1555 1555 1554 1555 1555 1555 1554 1555 1555 1554 1554 1555 1554 1555 1555 1554 1554 1553 1553 1553 1552 1552 1551 1552 1552 1553 1554 1554 1555 1555
1548 1548 1549 1549 1549 1549 1550 1550 1550 1551 1551 1551 1552 1553 1554 1554 1554 1554 1554 1554 1553 1553 1553 1553 1553 1553 1552 1552 1552 1551 1551 1551 1550 1550 1549 1549 1549 1550 1550 1551 1551 1552 1552
1547 1548 1548 1548 1548 1548 1548 1548 1549 1549 1549 1550 1550 1551 1551 1552 1552 1552 1552 1552 1552 1552 1552 1552 1551 1551 1551 1550 1550 1549 1549 1549 1548 1548 1548 1548 1548 1547 1547 1548 1548 1549 1549
1546 1547 1547 1547 1547 1547 1547 1547 1547 1547 1547 1548 1548 1549 1549 1549 1549 1550 1550 1550 1550 1551 1550 1550 1550 1550 1549 1549 1548 1548 1547 1547 1547 1546 1546 1545 1545 1545 1545 1545 1546 1546 1546
1546 1546 1546 1546 1545 1546 1545 1545 1546 1545 1546 1546 1546 1547 1547 1547 1548 1548 1548 1548 1548 1549 1549 1549 1548 1548 1548 1548 1547 1546 1546 1545 1545 1544 1544 1544 1543 1543 1543 1543 1543 1544 1544
1545 1545 1545 1544 1544 1544 1544 1544 1544 1544 1544 1545 1545 1545 1545 1545 1545 1546 1546 1546 1547 1547 1547 1547 1547 1547 1547 1546 1546 1545 1545 1544 1543 1543 1542 1542 1542 1542 1542 1542 1542 1542 1542
1544 1544 1543 1543 1543 1543 1543 1543 1542 1543 1543 1543 1543 1543 1542 1542 1543 1543 1544 1544 1545 1544 1545 1545 1545 1545 1545 1545 1545 1544 1544 1543 1542 1542 1541 1541 1540 1540 1540 1540 1540 1540 1540
1543 1543 1542 1541 1541 1541 1541 1541 1541 1541 1541 1541 1541 1540 1540 1540 1541 1541 1542 1542 1542 1543 1542 1542 1543 1543 1544 1544 1543 1543 1543 1542 1541 1541 1540 1540 1539 1539 1539 1539 1539 1539 1539
1542 1541 1541 1540 1539 1539 1539 1539 1539 1539 1539 1539 1539 1538 1538 1538 1538 1539 1539 1540 1540 1540 1540 1540 1541 1542 1542 1542 1542 1542 1542 1541 1540 1540 1539 1539 1539 1538 1538 1538 1538 1538 1538
1541 1541 1540 1539 1539 1538 1538 1538 1538 1538 1538 1537 1537 1537 1536 1536 1536 1536 1537 1537 1537 1538 1538 1538 1539 1540 1540 1541 1541 1541 1541 1540 1540 1539 1539 1539 1538 1538 1538 1538 1537 1537 1537
1540 1539 1539 1539 1538 1538 1537 1537 1537 1537 1536 1536 1536 1535 1535 1534 1534 1534 1534 1534 1535 1536 1536 1536 1537 1538 1538 1539 1539 1539 1539 1539 1539 1539 1538 1538 1538 1538 1537 1537 1537 1537 1537
1538 1538 1537 1537 1537 1537 1536 1536 1536 1535 1535 1534 1534 1533 1533 1533 1533 1533 1533 1532 1533 1533 1533 1534 1535 1536 1536 1537 1537 1537 1537 1538 1537 1537 1537 1537 1537 1537 1537 1536 1536 1536 1536
1536 1536 1536 1536 1536 1535 1535 1535 1534 1534 1533 1533 1532 1532 1532 1532 1531 1531 1531 1531 1531 1531 1531 1532 1532 1533 1534 1534 1534 1535 1535 1536 1536 1536 1536 1536 1535 1535 1535 1535 1536 1536 1536
1534 1534 1534 1534 1534 1534 1533 1533 1533 1532 1532 1531 1531 1531 1531 1531 1530 1530 1530 1530 1530 1530 1530 1530 1530 1531 1531 1532 1533 1533 1534 1534 1533 1534 1534 1534 1534 1534 1534 1534 1535 1535 1535
1532 1532 1532 1532 1532 1532 1531 1531 1531 1531 1530 1529 1529 1529 1529 1529 1529 1529 1529 1528 1528 1529 1529 1529 1529 1529 1529 1530 1531 1531 1531 1531 1531 1532 1532 1532 1532 1532 1533 1533 1533 1533 1533
1529 1529 1529 1529 1529 1529 1529 1529 1529 1529 1529 1528 1528 1527 1527 1527 1527 1527 1527 1527 1527 1527 1527 1527 1527 1527 1528 1528 1529 1529 1529 1530 1530 1530 1530 1530 1530 1530 1531 1531 1531 1532 1532
1526 1526 1526 1526 1526 1526 1527 1527 1527 1527 1527 1526 1526 1526 1525 1525 1525 1525 1526 1525 1525 1525 1525 1525 1525 1526 1526 1526 1527 1527 1527 1527 1527 1527 1528 1528 1528 1528 1529 1529 1529 1530 1530
1523 1523 1523 1523 1523 1524 1524 1524 1525 1525 1524 1524 1524 1524 1523 1523 1523 1524 1524 1523 1523 1523 1523 1523 1523 1523 1523 1523 1523 1524 1524 1525 1525 1525 1525 1526 1526 1526 1526 1527 1527 1527 1527